Temp
10 10 10 10 10 10 10 10 10 9 9 10 10 10 10 10 10 10 10 10 10 9 9 10 10 10 10 10 10 10 10 10 10 9 9 9 9 9 10 10 10 10
10 10 10 10 10 10 10 10 10 9 9 9 10 10 10 10 10 10 10 10 10 10 10 10 10 10 9 9 9 10 10 10 10 10 10 10 10 9 10 10 10 10
10 10 10 10 10 10 10 9 9 9 9 9 10 10 10 10 10 10 10 10 10 10 10 10 10 10 10 10 9 9 10 10 10 10 10 10 10 10 10 10 10 10
10 10 10 10 10 10 10 9 9 9 9 10 10 10 10 10 10 10 10 10 10 10 10 10 10 10 10 10 10 9 10 10 10 10 10 10 10 10 10 10 10 10
10 10 10 10 10 10 10 10 10 9 9 9 10 10 10 10 10 10 10 10 10 10 10 10 10 10 10 10 10 10 10 10 10 10 10 10 10 10 10 10 10 10
10 10 10 10 10 10 10 10 10 10 9 9 10 10 10 10 10 10 10 10 10 10 10 10 10 10 10 10 10 10 10 10 10 10 10 10 10 10 10 10 10 10
10 10 10 10 10 10 10 10 10 10 10 9 10 10 10 10 10 10 10 10 10 10 10 10 10 10 10 10 10 10 10 10 10 10 10 10 10 10 10 10 10 10
10 10 10 10 10 10 10 10 10 10 10 10 10 10 10 10 10 10 10 10 10 10 10 10 10 10 10 10 10 10 10 10 10 10 10 10 10 10 10 10 10 10
10 10 10 10 10 10 10 10 10 10 10 10 10 10 10 10 10 10 10 10 10 10 10 10 10 10 10 10 10 10 10 10 10 10 10 10 10 10 10 10 10 10
10 10 10 10 10 10 10 10 10 10 10 10 10 10 10 10 10 10 10 10 10 10 10 10 10 10 10 10 10 10 10 10 10 10 10 10 10 10 10 10 10 10
10 10 10 10 10 10 10 10 10 10 10 10 10 10 10 10 10 10 10 10 10 10 10 10 10 10 10 10 10 10 10 10 10 10 10 10 10 10 10 10 10 10
10 10 10 10 10 10 10 10 10 10 10 10 10 10 10 10 10 10 10 10 10 10 10 10 10 10 10 10 10 10 10 10 10 10 10 10 10 10 10 10 10 10
10 10 10 10 10 10 10 10 10 10 10 10 10 10 10 10 10 10 10 10 10 10 10 10 10 10 10 10 10 10 10 10 10 10 10 10 10 10 10 10 10 10
10 10 10 10 9 9 9 9 10 10 10 10 10 10 10 10 10 10 10 10 10 10 10 10 10 10 10 10 10 10 10 10 10 10 10 10 10 10 10 10 10 10
9 9 9 9 9 9 9 9 10 10 10 10 10 10 10 10 10 10 10 10 10 10 10 10 10 10 10 10 10 10 10 10 10 10 10 10 10 10 10 10 10 10
8 8 9 9 9 9 9 9 9 10 10 10 10 10 10 10 10 10 10 10 10 10 10 10 10 10 10 10 10 10 10 10 10 10 10 10 10 10 10 10 10 10
8 8 8 9 9 9 9 9 9 9 9 9 9 9 10 10 10 10 10 10 10 10 10 10 11 11 11 10 10 10 10 10 10 10 10 10 10 10 10 10 10 10
8 9 9 9 9 9 9 9 9 9 9 9 9 9 9 10 10 10 10 10 10 10 10 10 10 11 11 11 10 10 10 10 10 10 10 10 10 10 10 10 10 10
9 9 9 9 9 9 9 9 9 9 9 9 9 9 9 9 10 10 10 10 10 10 10 10 10 10 10 10 10 10 10 10 11 11 11 11 10 10 10 10 10 10
9 9 9 9 9 9 9 9 9 9 9 9 9 9 9 9 9 10 10 10 10 10 10 10 10 10 10 10 10 10 10 10 10 11 11 11 11 11 10 10 10 10
9 9 9 9 9 10 10 10 10 9 9 9 9 9 9 9 9 9 10 10 10 10 10 10 10 10 10 10 10 10 10 10 10 10 10 11 11 10 10 10 10 10
9 9 10 10 10 10 10 10 10 10 10 10 10 9 9 9 9 9 9 10 10 10 10 10 10 10 10 10 10 10 10 10 10 10 10 10 10 10 10 10 10 10
9 9 10 10 10 10 10 10 10 10 10 10 9 9 9 8 9 9 9 9 9 10 10 10 10 10 10 10 10 10 10 9 9 9 10 10 10 10 10 10 10 10
9 9 9 10 10 9 9 10 9 9 9 9 9 9 9 9 9 9 9 9 9 9 9 10 10 10 10 10 10 10 10 10 10 9 10 10 10 10 10 10 10 10
9 9 9 10 10 10 10 10 10 10 10 10 9 9 9 9 9 9 9 9 9 9 9 9 10 10 10 10 10 10 10 10 10 9 10 10 10 10 10 10 10 10
9 9 10 10 10 10 10 10 10 10 10 10 10 10 9 9 9 9 9 9 9 9 9 9 10 10 10 10 10 10 10 9 9 9 9 10 10 10 10 10 10 10
Height
3237 3239 3240 3241 3242 3242 3243 3244 3245 3246 3246 3247 3247 3248 3248 3249 3249 3250 3250 3250 3251 3251 3251 3252 3252 3252 3253 3253 3254 3254 3255 3255 3256 3256 3257 3258 3258 3259 3260 3261 3261 3262
3236 3237 3239 3240 3241 3242 3242 3243 3244 3245 3246 3246 3247 3247 3248 3248 3249 3249 3250 3250 3251 3251 3251 3252 3252 3253 3253 3253 3254 3254 3254 3255 3255 3256 3257 3257 3258 3259 3259 3260 3261 3261
3234 3236 3237 3239 3240 3241 3241 3242 3243 3244 3245 3246 3246 3247 3247 3248 3248 3249 3249 3250 3250 3251 3251 3252 3252 3253 3253 3253 3254 3254 3254 3255 3255 3256 3257 3257 3258 3258 3259 3260 3260 3261
3233 3234 3236 3237 3239 3240 3240 3241 3242 3243 3244 3245 3245 3246 3247 3247 3248 3249 3249 3250 3250 3251 3251 3252 3252 3252 3253 3253 3254 3254 3254 3255 3255 3256 3256 3257 3257 3258 3258 3259 3260 3260
3231 3233 3235 3236 3237 3238 3239 3240 3241 3242 3243 3244 3244 3245 3246 3247 3248 3248 3249 3249 3250 3251 3251 3251 3252 3252 3253 3253 3253 3254 3254 3255 3255 3255 3256 3257 3257 3258 3258 3259 3259 3260
3230 3231 3233 3234 3236 3237 3238 3239 3240 3241 3241 3242 3243 3244 3245 3246 3247 3248 3248 3249 3249 3250 3251 3251 3252 3252 3252 3253 3253 3253 3254 3254 3255 3255 3256 3256 3257 3257 3258 3258 3259 3259
3228 3230 3231 3232 3234 3235 3236 3237 3238 3239 3240 3241 3242 3243 3244 3245 3246 3247 3248 3249 3249 3249 3250 3250 3251 3252 3252 3252 3252 3253 3253 3254 3254 3254 3255 3256 3256 3257 3258 3258 3259 3259
3227 3228 3230 3231 3232 3233 3235 3236 3237 3238 3239 3240 3241 3242 3243 3244 3245 3246 3247 3248 3248 3249 3249 3249 3250 3251 3251 3252 3252 3252 3253 3253 3253 3254 3254 3255 3256 3256 3257 3258 3258 3259
3226 3227 3228 3230 3231 3232 3233 3235 3236 3236 3237 3238 3240 3241 3242 3243 3244 3245 3245 3246 3247 3248 3248 3248 3249 3249 3250 3251 3251 3252 3252 3252 3252 3253 3253 3254 3255 3255 3256 3257 3257 3258
3225 3225 3227 3228 3230 3231 3232 3233 3234 3235 3236 3237 3238 3240 3241 3242 3242 3243 3244 3245 3246 3247 3247 3247 3248 3248 3249 3249 3250 3250 3251 3251 3252 3252 3252 3253 3253 3254 3255 3255 3256 3257
3223 3224 3225 3226 3228 3229 3230 3231 3232 3233 3234 3236 3237 3238 3240 3241 3241 3242 3243 3243 3244 3245 3246 3246 3247 3247 3248 3248 3249 3249 3250 3250 3251 3251 3252 3252 3252 3253 3253 3254 3255 3255
3221 3222 3223 3224 3225 3227 3228 3229 3230 3231 3233 3234 3235 3236 3237 3239 3240 3241 3242 3242 3243 3243 3244 3245 3246 3246 3247 3247 3248 3248 3249 3249 3250 3251 3251 3251 3252 3252 3252 3253 3253 3254
3218 3220 3221 3222 3223 3225 3226 3227 3228 3230 3231 3232 3233 3234 3235 3236 3237 3239 3240 3241 3242 3242 3243 3243 3244 3245 3245 3246 3247 3247 3248 3248 3249 3250 3250 3250 3251 3251 3251 3251 3252 3252
3215 3217 3218 3219 3221 3222 3223 3225 3227 3228 3229 3230 3231 3232 3233 3234 3235 3237 3238 3239 3240 3241 3241 3242 3242 3243 3244 3244 3245 3246 3246 3247 3247 3248 3249 3249 3249 3250 3250 3250 3250 3251
3211 3213 3215 3217 3218 3219 3221 3223 3224 3226 3227 3228 3229 3230 3232 3233 3234 3235 3236 3237 3238 3239 3240 3240 3241 3241 3242 3243 3243 3244 3245 3245 3246 3246 3247 3247 3248 3248 3248 3249 3249 3250
3210 3210 3212 3214 3216 3217 3219 3220 3222 3223 3224 3225 3226 3228 3229 3230 3231 3232 3233 3235 3236 3237 3238 3239 3239 3240 3240 3241 3242 3242 3243 3244 3244 3244 3245 3245 3246 3246 3247 3247 3248 3248
3210 3210 3210 3212 3214 3215 3216 3218 3219 3220 3221 3223 3224 3225 3226 3228 3229 3230 3231 3232 3233 3234 3235 3237 3238 3239 3239 3240 3240 3241 3241 3242 3242 3242 3243 3243 3244 3244 3245 3245 3246 3246
3208 3209 3209 3210 3212 3213 3215 3216 3217 3218 3219 3220 3221 3222 3223 3224 3226 3227 3229 3230 3230 3232 3233 3234 3236 3237 3237 3238 3238 3239 3240 3240 3240 3241 3241 3241 3242 3242 3243 3243 3244 3244
3205 3206 3207 3208 3210 3211 3212 3214 3215 3216 3217 3217 3218 3219 3220 3222 3223 3224 3226 3227 3228 3229 3230 3232 3233 3234 3235 3236 3236 3237 3237 3238 3239 3239 3239 3240 3240 3241 3242 3242 3242 3242
3201 3203 3204 3206 3207 3209 3210 3211 3213 3214 3215 3215 3215 3216 3217 3219 3220 3221 3223 3224 3225 3226 3227 3229 3230 3231 3232 3233 3233 3234 3235 3235 3236 3237 3237 3238 3238 3238 3239 3239 3240 3240
3199 3201 3203 3204 3206 3207 3208 3209 3210 3212 3213 3213 3212 3213 3213 3215 3216 3218 3219 3221 3222 3223 3224 3226 3227 3228 3228 3229 3230 3231 3232 3232 3233 3234 3234 3235 3235 3236 3236 3236 3237 3237
3199 3200 3202 3203 3205 3206 3207 3207 3208 3209 3210 3210 3210 3209 3210 3211 3213 3215 3216 3217 3219 3220 3221 3222 3223 3225 3226 3226 3227 3227 3229 3230 3231 3231 3232 3232 3233 3233 3233 3233 3233 3233
3198 3200 3201 3202 3203 3204 3205 3206 3206 3207 3207 3208 3208 3207 3207 3209 3212 3213 3214 3213 3214 3215 3216 3218 3220 3221 3223 3224 3224 3225 3225 3227 3228 3228 3229 3229 3230 3230 3230 3230 3230 3230
3197 3198 3199 3200 3201 3201 3202 3203 3204 3204 3205 3205 3205 3204 3204 3206 3209 3211 3211 3211 3209 3209 3211 3213 3215 3217 3219 3221 3223 3223 3222 3223 3224 3225 3226 3226 3227 3227 3227 3227 3227 3227
3195 3196 3197 3197 3198 3199 3199 3200 3201 3201 3201 3201 3201 3201 3201 3202 3204 3206 3207 3207 3206 3205 3206 3209 3211 3213 3215 3217 3219 3220 3220 3220 3220 3221 3222 3223 3223 3223 3223 3223 3223 3223
3193 3194 3195 3195 3196 3196 3197 3197 3198 3198 3199 3198 3198 3198 3199 3199 3200 3202 3203 3203 3202 3203 3204 3205 3207 3209 3211 3213 3214 3216 3218 3218 3218 3218 3218 3218 3218 3218 3218 3219 3219 3219
Wind_Speed
15 14 13 12 10 10 10 10 9 8 7 6 6 6 5 5 5 6 6 5 5 5 5 5 6 6 5 5 6 6 7 7 7 7 8 9 9 9 8 7 8 7
17 16 15 13 12 11 10 10 10 9 9 8 7 7 6 6 6 6 6 5 5 5 5 5 5 6 6 6 6 6 7 7 7 8 8 9 9 8 8 8 8 7
19 18 16 15 14 12 11 11 10 10 10 10 9 7 7 7 6 6 6 5 5 5 5 5 5 5 5 5 6 6 7 7 8 8 8 8 8 8 9 8 7 7
19 19 18 17 16 14 13 13 12 11 11 10 9 8 7 7 7 7 6 6 5 5 5 5 5 5 5 5 5 6 6 7 8 8 8 9 9 9 9 8 8 8
19 19 19 18 17 16 15 14 13 12 12 11 10 10 8 7 7 7 7 6 6 6 5 5 5 5 5 5 5 5 6 6 7 7 8 8 8 8 9 9 8 8
18 19 19 19 19 18 16 15 14 14 13 13 12 12 10 9 9 8 8 8 7 7 6 6 5 6 6 6 6 5 6 6 6 6 6 7 8 8 8 8 8 8
19 19 20 20 20 20 18 17 16 15 15 14 14 13 12 12 10 10 10 10 9 9 8 7 7 7 6 6 6 6 6 6 6 6 5 6 7 7 7 7 7 8
20 19 20 20 21 21 20 19 18 17 16 16 15 14 14 14 13 12 11 11 10 10 10 9 8 8 7 7 7 7 6 6 6 7 6 6 6 7 7 7 7 7
21 20 20 20 20 20 20 19 19 18 18 17 17 16 16 15 14 14 13 12 12 12 11 11 10 9 8 8 8 8 7 7 7 7 7 6 6 6 7 6 6 7
23 22 20 20 20 20 19 19 19 19 19 18 17 17 17 16 16 16 15 14 13 13 13 12 12 11 10 10 9 9 9 9 8 8 8 7 8 7 7 7 6 7
25 24 22 21 21 20 20 19 19 19 19 18 18 18 18 17 17 17 17 16 15 14 14 13 13 13 12 11 11 10 10 10 10 10 9 9 9 9 9 8 8 8
26 26 24 23 22 21 21 20 20 20 20 19 19 18 19 18 18 19 18 18 17 16 16 15 14 14 14 13 12 12 11 11 11 11 11 11 10 10 10 10 10 10
27 26 25 25 23 22 22 21 21 20 20 20 19 19 20 20 19 19 19 19 19 18 18 17 16 16 15 15 14 13 13 12 12 12 12 12 12 12 12 12 12 12
28 26 26 26 25 24 24 22 21 20 20 20 20 20 20 20 20 20 19 19 20 20 20 19 18 17 17 16 16 15 15 14 13 13 13 13 13 13 13 13 13 14
28 26 26 26 26 26 25 24 22 21 21 21 21 21 21 21 20 20 20 20 20 20 21 21 21 19 18 18 18 17 17 16 16 15 14 14 14 14 14 14 14 14
26 25 25 26 26 26 26 25 24 23 22 22 22 22 22 22 21 20 20 20 20 20 21 23 23 22 21 20 20 19 19 19 19 18 18 17 16 16 15 15 15 15
25 24 23 25 26 25 25 25 25 25 24 23 23 23 22 23 22 21 21 20 20 21 22 23 23 23 22 22 22 22 21 21 21 21 21 21 20 19 18 18 18 17
24 23 22 22 24 23 23 24 26 26 25 24 24 23 23 23 23 22 21 20 20 20 20 21 23 23 23 23 23 23 23 23 23 23 23 22 22 21 20 20 20 20
20 20 18 19 21 22 22 23 25 26 26 25 25 24 24 24 24 23 23 21 20 19 18 19 21 23 24 23 22 23 23 23 22 22 22 22 21 21 21 21 21 21
15 15 15 17 20 21 22 23 24 25 27 27 26 26 25 24 24 24 24 23 22 20 18 18 19 22 23 23 22 23 23 24 23 22 21 20 20 20 20 20 20 20
13 13 13 15 17 19 21 21 22 23 25 26 27 27 27 27 26 25 24 23 23 22 20 19 20 21 21 21 21 21 22 23 23 23 22 21 20 20 20 20 20 20
15 14 14 14 15 16 18 19 19 19 20 23 26 27 27 27 26 25 23 22 22 23 23 23 23 23 22 22 21 20 19 20 21 22 22 21 21 20 21 21 21 22
17 16 16 17 17 17 18 19 20 20 21 23 25 25 24 23 23 23 24 23 22 23 24 24 25 26 26 25 24 22 21 20 21 22 22 22 22 22 22 23 23 23
17 17 18 18 19 19 20 21 23 24 25 26 27 25 23 22 21 22 24 24 23 23 23 23 24 26 28 28 28 27 26 24 24 25 25 25 24 25 25 25 25 25
17 17 17 18 18 19 20 22 24 26 27 27 28 27 26 25 24 23 24 24 25 25 24 22 23 26 28 30 31 31 30 28 27 28 28 27 27 27 27 27 27 26
16 17 17 18 18 19 20 21 22 24 25 26 27 28 29 29 28 26 26 26 26 26 25 24 24 26 27 30 33 34 33 31 31 30 29 29 29 29 28 28 27 27
Wind_Direction
209 210 213 212 206 199 196 201 206 210 213 210 205 205 201 197 199 203 203 206 209 210 213 210 202 205 209 212 213 206 203 207 208 207 206 204 205 208 211 215 219 218
212 212 214 216 213 207 203 206 209 212 215 212 209 206 202 201 202 203 202 205 215 219 219 219 213 209 212 212 211 213 209 205 209 212 210 206 204 207 212 212 215 218
215 215 217 219 220 216 211 211 213 216 219 217 214 209 202 203 206 205 206 207 215 222 220 222 223 215 214 212 210 215 216 210 212 213 213 210 207 209 212 210 212 217
217 218 219 220 223 223 219 215 213 216 220 219 218 215 208 206 210 209 208 211 215 219 219 221 226 221 216 215 216 217 218 215 215 215 215 215 213 212 213 214 215 218
218 219 220 220 221 224 223 220 217 217 218 218 217 217 214 208 212 213 210 214 216 216 219 220 224 227 224 221 219 217 216 215 215 219 220 221 222 218 215 218 219 222
217 217 218 220 220 221 223 222 222 220 218 219 216 215 214 209 209 214 213 215 216 213 213 217 223 228 229 227 223 219 216 212 209 216 224 227 230 227 222 222 223 226
218 217 217 218 218 219 220 221 224 224 222 222 220 216 215 209 205 210 216 215 215 213 209 211 218 226 232 234 229 221 216 212 201 201 216 228 231 231 229 228 229 229
221 221 220 220 220 219 219 219 222 224 225 225 224 220 218 214 206 205 212 215 215 216 214 210 212 216 226 234 236 231 222 215 205 198 204 219 227 232 231 230 232 232
225 226 225 224 224 224 223 222 222 224 225 225 225 223 220 217 212 207 207 212 215 218 218 215 212 211 214 222 231 238 235 226 217 209 207 209 215 228 234 233 232 233
225 226 227 228 227 227 226 225 226 226 227 227 227 227 224 220 218 214 210 210 212 215 218 219 218 216 214 215 221 231 236 235 231 227 223 216 214 221 228 230 231 234
226 224 224 225 228 228 226 224 225 226 227 227 228 230 229 225 222 220 217 214 212 213 215 218 221 221 219 218 220 226 232 234 236 237 236 230 227 228 230 231 232 235
227 225 223 223 225 229 227 225 225 225 226 227 226 227 230 230 227 223 222 220 218 216 215 215 218 220 221 221 223 227 231 235 237 238 240 238 236 237 238 240 240 241
226 224 223 223 224 226 228 227 226 226 227 227 227 226 227 229 229 227 225 225 225 224 222 219 218 218 220 221 223 226 229 234 237 238 240 241 241 242 243 245 246 248
223 220 219 221 223 225 228 228 225 225 228 229 229 229 229 229 229 229 228 228 229 230 229 227 224 221 220 221 222 225 228 232 236 237 237 238 240 242 244 247 248 249
219 215 217 220 223 226 228 227 224 224 227 229 231 233 233 231 229 230 231 232 232 234 234 233 229 226 224 224 224 225 227 230 234 237 237 237 237 238 241 245 248 251
221 215 216 222 225 226 229 229 226 226 228 229 231 233 234 233 231 229 231 232 234 236 238 238 236 232 230 230 230 230 230 231 233 235 237 237 238 239 240 242 245 248
225 220 218 223 228 229 230 228 226 228 230 231 231 233 233 233 233 232 231 231 233 236 240 243 243 240 237 235 236 236 235 235 235 237 238 238 239 239 240 242 244 246
221 221 217 221 228 230 230 229 228 229 231 231 231 232 234 234 234 235 234 233 233 235 240 245 248 247 244 242 242 242 243 243 242 243 245 246 247 247 246 245 245 247
209 214 214 220 227 229 231 232 234 235 235 233 232 233 235 236 236 236 235 235 235 236 239 244 247 248 247 246 247 248 250 251 250 251 252 254 256 258 258 258 256 255
206 209 211 218 224 227 229 232 235 239 240 237 234 234 236 237 237 237 236 236 235 236 238 242 244 244 243 243 245 248 251 254 255 255 255 255 257 259 261 263 264 264
223 220 215 216 219 223 225 226 229 234 238 238 235 234 234 235 235 235 236 236 236 236 237 240 241 240 237 235 237 241 246 251 255 257 256 255 255 255 256 257 259 262
234 230 225 224 226 226 225 224 225 227 231 235 236 234 233 233 234 234 232 231 233 236 238 240 241 240 236 233 231 232 237 243 248 252 254 255 254 255 256 257 258 260
242 240 237 238 239 237 235 234 234 233 232 235 239 239 236 235 237 238 236 232 232 235 238 240 243 243 242 240 236 233 235 240 245 247 248 250 251 252 254 255 256 258
246 247 246 245 244 243 242 241 241 241 241 242 246 248 246 243 240 240 241 240 238 239 240 241 244 247 248 248 246 243 241 242 247 248 247 246 246 247 249 250 252 253
242 247 250 249 246 246 245 243 243 244 246 250 253 255 256 255 252 248 247 247 248 247 246 245 246 248 249 250 252 250 247 247 249 251 250 249 249 249 250 252 254 255
241 243 246 247 247 248 248 248 248 248 250 254 257 259 260 260 260 258 257 257 257 256 254 251 250 250 250 251 253 254 252 252 253 253 252 253 253 253 254 256 259 260